Погода в Климовске

Россия / Республика Коми     61°17′08″N   53°38′52″E
темп.,
°C
ветер,
м/с
пор.,
м/с
влажн.,
%
обл.,
%
осадки,
мм/ч
давл.,
гПа
погр.,
м
7 августа, вс
вс700:00+18зюз117564 0.0 102111
03:00+17зюз11795 0.0 102111
06:00+21юз126633 0.0 1021144
09:00+26юз234779 0.0 1020991
12:00+29ююз23375 0.0 10192431
15:00+30ююз343326 0.0 10182467
18:00+25ю375086 0.0 1017249
21:00+20юз25665 0.0 101777
8 августа, пн
пн800:00+19юз2769100 0.0 1018154
03:00+18ююз2774100 0.0 1018133
06:00+21юз38668 0.0 1018278
09:00+26зюз355254 0.0 1018841
12:00+28зюз4644100 0.0 10182029
15:00+27зсз364870 0.1 10181573
18:00+24зсз3658100 0.0 1018410
21:00+18ссз288215 0.0 1020197
9 августа, вт
вт900:00+15ссз23795 0.1 102148
03:00+14ссз227757 0.1 102137
06:00+17с24605 0.0 1022226
09:00+22ссв234251 0.0 1022964
12:00+24с2235100 0.0 10221769
15:00+19зсз115190 0.0 102223
18:00+20зюз005395 0.0 102211
21:00+15ссв246743 0.0 102267
10 августа, ср
ср1000:00+13св21070100 0.0 1021223
03:00+12св2971100 0.0 1021180
06:00+12св2682100 0.3 1021150
09:00+13ссв3879100 0.5 1020275
12:00+19св3355100 0.2 1019685
15:00+14ссв4978100 0.4 1019350
18:00+12ссв3794100 0.4 1018310
21:00+11ссв2698100 1.0 1018272
11 августа, чт
чт1100:00+11ссв2599100 1.1 1017211
03:00+11ссв2699100 1.9 1016279
06:00+12с2699100 0.3 1016344
09:00+12с2697100 0.9 1016319
12:00+13с1495100 0.3 1015243
15:00+13сз0097100 0.4 101558
18:00+13зсз1398100 0.9 101487
21:00+12з249895 1.6 101495